Hourly Data Report for October 04, 2015

All times are specified in Local Standard Time (LST). Add 1 hour to adjust for Daylight Saving Time where and when it is observed.

PETAWAWA AWOS 2
ONTARIO

45°57'00.000" N
77°19'00.000" W
130.10 m
6106396
71625
YWA

Download Data

Hourly Data (October 2015)
Hourly Data Report for October 4, 2015
Temp Definition
°C
Dew Point Temp Definition
°C
Rel Hum Definition
%
Wind Dir Definition
10's deg

Wind Spd Definition
km/h
Visibility Definition
km
Stn Press Definition
kPa
Hmdx Definition


Wind Chill Definition


Weather Definition


TIME
00:00 9.0 2.7 65 10 11 14.5 101.70     LegendNANA
01:00 8.6 2.8 67 10 11 14.5 101.68     LegendNANA
02:00 8.5 2.1 64 10 11 14.5 101.61     LegendNANA
03:00 9.0 2.3 63 10 15 14.5 101.56     LegendNANA
04:00 9.1 2.6 64 13 19 14.5 101.54     LegendNANA
05:00 8.7 1.8 62 13 15 14.5 101.55     LegendNANA
06:00 8.5 2.3 65 13 19 14.5 101.56     LegendNANA
07:00 8.5 2.6 66 11 11 14.5 101.58     LegendNANA
08:00 8.8 2.4 64 13 17 14.5 101.56     LegendNANA
09:00 8.9 2.7 65 14 19 14.5 101.57     LegendNANA
10:00 9.4 3.2 65 13 13 14.5 101.53     LegendNANA
11:00 9.8 3.0 63 13 13 14.5 101.46     LegendNANA
12:00 10.8 3.4 60 12 9 14.5 101.36     LegendNANA
13:00 11.5 3.9 60 14 13 14.5 101.28     LegendNANA
14:00 12.1 4.4 59 14 9 14.5 101.20     LegendNANA
15:00 12.4 4.2 57 15 11 14.5 101.15     LegendNANA
16:00 12.6 3.7 55 15 9 14.5 101.10     LegendNANA
17:00 12.5 4.0 56 15 6 14.5 101.08     LegendNANA
18:00 12.5 4.2 57 15 7 14.5 101.06     LegendNANA
19:00 12.6 5.6 62 16 7 14.5 101.03     LegendNANA
20:00 12.5 5.8 64   0 14.5 101.03     LegendNANA
21:00 12.1 6.0 66   0 14.5 101.04     LegendNANA
22:00 10.6 7.8 83   0 14.5 100.99     LegendNANA
23:00 11.5 7.0 74 11 4 14.5 100.95     LegendNANA

Notes on Data Quality.

Legend

  • E = Estimated
  • M = Missing
  • NA = Not Available
  • ‡ = Partner data that is not subject to review by the National Climate Archives
Date modified: